Buffalo, MN

12:14 PM CDT on June 25, 2017 (GMT -0500)
Buffalo

Weather History for KCFE - November, 2011

Change the Weather History Date:

Tuesday, November 15, 2011

  Actual Average (KMIC) Record (KMIC)
Temperature  
Mean Temperature 36 °F -  
Max Temperature 47 °F 40 °F 64 °F (2015)
Min Temperature 25 °F 25 °F 3 °F (2014)
Degree Days  
Heating Degree Days 29    
Moisture  
Dew Point 25 °F    
Average Humidity 63    
Maximum Humidity 90    
Minimum Humidity 44    
Precipitation  
Precipitation 0.00 in - - ()
Sea Level Pressure  
Sea Level Pressure 29.65 in    
Wind  
Wind Speed 5 mph (West)    
Max Wind Speed 24 mph    
Max Gust Speed 34 mph    
Visibility 10 miles    
Events      
Averages and records for this station are not official NWS values.
T = Trace of Precipitation, MM = Missing Value Source: NWS Daily Summary

Daily Weather History Graph

Daily Weather History Graph

Search for Another Location

Airport or City:

Trip Planner

Search our weather history database for the weather conditions in past years. The results will help you decide how hot, cold, wet, or windy it might be!

Date:

Astronomy

Nov. 15, 2011 Rise Set
Actual Time 7:13 AM CST 4:46 PM CST
Civil Twilight 6:41 AM CST 5:18 PM CST
Nautical Twilight 6:05 AM CST 5:53 PM CST
Astronomical Twilight 5:30 AM CST 6:28 PM CST
Moon 8:55 PM CST (11/15) 11:14 AM CST (11/15)
Length of Visible Light 10h 36m
Length of Day
9h 33m
Waning Gibbous, 79% of the Moon is Illuminated
Nov 15
Waning Gibbous
Nov 18
Last Quarter
Nov 25
New
Dec 2
First Quarter
Dec 10
Full

Hourly Weather History & Observations

Time (CST) Temp. Windchill Dew Point Humidity Pressure Visibility Wind Dir Wind Speed Gust Speed Precip Events Conditions
12:14 AM 32.0 °F - 23.9 °F 72% 29.60 in 10.0 mi Calm Calm - N/A   Overcast
12:34 AM 33.8 °F - 24.6 °F 69% 29.60 in 10.0 mi Calm Calm - N/A   Overcast
12:54 AM 32.9 °F - 24.3 °F 71% 29.59 in 10.0 mi Calm Calm - N/A   Overcast
1:15 AM 33.8 °F - 24.4 °F 69% 29.58 in 10.0 mi Calm Calm - N/A   Overcast
1:34 AM 34.0 °F - 24.6 °F 69% 29.56 in 10.0 mi Calm Calm - N/A   Scattered Clouds
1:54 AM 34.0 °F - 24.3 °F 68% 29.55 in 10.0 mi Calm Calm - N/A   Clear
2:15 AM 33.8 °F - 24.3 °F 68% 29.55 in 10.0 mi Calm Calm - N/A   Scattered Clouds
2:34 AM 33.8 °F - 24.3 °F 68% 29.54 in 10.0 mi Calm Calm - N/A   Clear
2:54 AM 33.8 °F - 23.9 °F 67% 29.54 in 10.0 mi Calm Calm - N/A   Clear
3:15 AM 32.4 °F - 23.9 °F 71% 29.53 in 10.0 mi Calm Calm - N/A   Clear
3:34 AM 32.7 °F 29.6 °F 24.6 °F 72% 29.52 in 10.0 mi NNE 3.5 mph - N/A   Clear
3:54 AM 30.7 °F - 23.5 °F 75% 29.52 in 10.0 mi Calm Calm - N/A   Clear
4:15 AM 30.7 °F - 23.4 °F 74% 29.52 in 10.0 mi Calm Calm - N/A   Clear
4:34 AM 29.3 °F 25.6 °F 23.0 °F 77% 29.51 in 10.0 mi ENE 3.5 mph - N/A   Clear
4:54 AM 28.2 °F 24.4 °F 23.4 °F 82% 29.52 in 10.0 mi North 3.5 mph - N/A   Clear
5:14 AM 29.3 °F - 23.9 °F 80% 29.52 in 10.0 mi Calm Calm - N/A   Clear
5:34 AM 27.3 °F - 22.6 °F 83% 29.52 in 10.0 mi Calm Calm - N/A   Clear
5:54 AM 25.5 °F - 21.0 °F 83% 29.52 in 10.0 mi Calm Calm - N/A   Clear
7:14 AM 26.1 °F - 23.4 °F 90% 29.55 in 10.0 mi Calm Calm - N/A   Mostly Cloudy
7:34 AM 29.7 °F 24.7 °F 26.2 °F 87% 29.58 in 10.0 mi NW 4.6 mph - N/A   Overcast
7:54 AM 31.5 °F - 25.7 °F 79% 29.58 in 10.0 mi Calm Calm - N/A   Mostly Cloudy
8:15 AM 30.7 °F - 25.5 °F 81% 29.58 in 10.0 mi Calm Calm - N/A   Clear
9:14 AM 36.0 °F 33.3 °F 28.2 °F 73% 29.61 in 10.0 mi WSW 3.5 mph - N/A   Clear
9:34 AM 37.4 °F - 27.9 °F 68% 29.61 in 10.0 mi Calm Calm - N/A   Clear
9:54 AM 39.2 °F - 28.2 °F 65% 29.62 in 10.0 mi Calm Calm - N/A   Clear
10:14 AM 40.1 °F - 28.6 °F 63% 29.61 in 10.0 mi Calm Calm - N/A   Clear
10:34 AM 41.4 °F - 29.1 °F 62% 29.62 in 10.0 mi Calm Calm - N/A   Clear
10:54 AM 41.9 °F 39.0 °F 29.3 °F 61% 29.63 in 10.0 mi South 4.6 mph - N/A   Clear
11:14 AM 43.7 °F 41.1 °F 31.1 °F 61% 29.62 in 10.0 mi SW 4.6 mph - N/A   Clear
11:34 AM 45.5 °F 41.8 °F 32.0 °F 59% 29.62 in 10.0 mi SW 6.9 mph - N/A   Clear
11:54 AM 46.4 °F 41.5 °F 32.0 °F 57% 29.63 in 10.0 mi SW 10.4 mph 16.1 mph N/A   Scattered Clouds
12:14 PM 46.4 °F 40.4 °F 31.6 °F 56% 29.63 in 10.0 mi WSW 13.8 mph 23.0 mph N/A   Clear
12:34 PM 46.6 °F - 31.1 °F 55% 29.63 in 10.0 mi WSW 13.8 mph 21.9 mph N/A   Clear
12:54 PM 46.6 °F - 31.1 °F 55% 29.62 in 10.0 mi SW 13.8 mph 19.6 mph N/A   Clear
1:14 PM 47.3 °F - 30.9 °F 53% 29.63 in 10.0 mi WSW 15.0 mph 20.7 mph N/A   Clear
1:34 PM 47.3 °F - 30.7 °F 53% 29.63 in 10.0 mi WSW 17.3 mph 25.3 mph N/A   Scattered Clouds
2:14 PM 45.9 °F 38.3 °F 29.5 °F 53% 29.65 in 10.0 mi WSW 19.6 mph 28.8 mph N/A   Mostly Cloudy
2:34 PM 46.2 °F 38.7 °F 27.7 °F 48% 29.66 in 10.0 mi West 19.6 mph 34.5 mph N/A   Scattered Clouds
2:54 PM 45.3 °F 37.1 °F 27.7 °F 50% 29.68 in 10.0 mi West 21.9 mph 28.8 mph N/A   Scattered Clouds
3:14 PM 43.3 °F 34.0 °F 23.4 °F 45% 29.69 in 10.0 mi West 24.2 mph 31.1 mph N/A   Scattered Clouds
3:34 PM 42.1 °F 34.9 °F 24.1 °F 49% 29.71 in 10.0 mi West 13.8 mph 26.5 mph N/A   Clear
3:54 PM 41.7 °F 32.6 °F 21.4 °F 44% 29.72 in 10.0 mi West 20.7 mph 29.9 mph N/A   Scattered Clouds
4:14 PM 40.5 °F 31.2 °F 19.8 °F 44% 29.74 in 10.0 mi West 19.6 mph 27.6 mph N/A   Scattered Clouds
4:34 PM 39.6 °F 30.3 °F 22.1 °F 50% 29.76 in 10.0 mi West 18.4 mph 29.9 mph N/A   Mostly Cloudy
4:54 PM 38.5 °F 29.9 °F 21.4 °F 50% 29.76 in 10.0 mi West 15.0 mph 24.2 mph N/A   Scattered Clouds
5:14 PM 37.6 °F 28.4 °F 19.9 °F 49% 29.77 in 10.0 mi West 16.1 mph 23.0 mph N/A   Clear
5:34 PM 37.4 °F 28.2 °F 20.3 °F 50% 29.78 in 10.0 mi West 16.1 mph 26.5 mph N/A   Clear
5:55 PM 36.5 °F 29.2 °F 20.3 °F 52% 29.79 in 10.0 mi WSW 10.4 mph 19.6 mph N/A   Clear
6:14 PM 36.5 °F 29.2 °F 21.0 °F 54% 29.80 in 10.0 mi WSW 10.4 mph 18.4 mph N/A   Clear
6:34 PM 35.8 °F 26.9 °F 21.7 °F 57% 29.81 in 10.0 mi West 13.8 mph 19.6 mph N/A   Clear
6:54 PM 35.6 °F 24.8 °F 23.7 °F 62% 29.82 in 10.0 mi WSW 19.6 mph 25.3 mph N/A   Clear
7:34 PM 34.3 °F 25.5 °F 23.7 °F 65% 29.84 in 10.0 mi West 12.7 mph 27.6 mph N/A   Scattered Clouds
7:54 PM 33.8 °F 22.8 °F 21.4 °F 60% 29.84 in 10.0 mi WNW 18.4 mph 21.9 mph N/A   Clear
8:14 PM 32.5 °F 21.5 °F 19.9 °F 60% 29.86 in 10.0 mi West 17.3 mph 23.0 mph N/A   Clear
8:34 PM 32.0 °F 21.6 °F 19.4 °F 60% 29.87 in 10.0 mi West 15.0 mph 27.6 mph N/A   Clear
8:54 PM 31.6 °F 19.7 °F 17.6 °F 56% 29.87 in 10.0 mi West 19.6 mph 27.6 mph N/A   Clear
9:14 PM 31.1 °F 19.3 °F 18.0 °F 58% 29.88 in 10.0 mi West 18.4 mph 26.5 mph N/A   Clear
9:34 PM 30.2 °F 19.3 °F 18.1 °F 61% 29.89 in 10.0 mi West 15.0 mph 24.2 mph N/A   Clear
9:54 PM 30.2 °F 18.9 °F 17.8 °F 60% 29.89 in 10.0 mi West 16.1 mph 25.3 mph N/A   Clear
10:14 PM 30.0 °F 19.5 °F 17.8 °F 60% 29.89 in 10.0 mi West 13.8 mph 23.0 mph N/A   Clear
10:34 PM 29.8 °F 18.4 °F 18.5 °F 63% 29.90 in 10.0 mi West 16.1 mph 21.9 mph N/A   Clear
10:54 PM 29.3 °F 18.6 °F 18.5 °F 64% 29.90 in 10.0 mi West 13.8 mph - N/A   Clear
11:14 PM 29.1 °F 19.4 °F 18.7 °F 65% 29.91 in 10.0 mi West 11.5 mph 23.0 mph N/A   Clear
11:34 PM 28.8 °F 17.5 °F 19.0 °F 67% 29.91 in 10.0 mi West 15.0 mph 19.6 mph N/A   Clear